Date,TemperatureHighF,TemperatureAvgF,TemperatureLowF,DewpointHighF,DewpointAvgF,DewpointLowF,HumidityHigh,HumidityAvg,HumidityLow,PressureMaxIn,PressureMinIn,WindSpeedMaxMPH,WindSpeedAvgMPH,GustSpeedMaxMPH,PrecipitationSumIn
2013-3-1,48.3,38.5,27.9,30.6,27.0,24.2,92,65,41,29.82,29.73,3,0,9,0.00
2013-3-2,47.3,38.5,29.0,28.8,24.1,18.4,79,57,38,29.82,29.72,9,0,9,0.00
2013-3-3,46.0,34.9,26.9,23.2,18.6,14.1,73,53,32,29.89,29.74,10,0,14,0.00
2013-3-4,50.7,35.3,22.7,18.2,14.1,10.4,67,44,20,30.01,29.87,10,0,13,0.00
2013-3-5,53.2,42.2,34.1,43.7,32.5,17.4,99,72,33,29.99,29.48,7,0,10,0.51
2013-3-6,43.6,39.3,34.4,40.9,32.8,26.2,100,78,58,29.92,29.40,17,2,25,0.01
2013-3-7,49.1,39.6,29.5,31.6,27.9,24.7,91,65,43,30.13,29.92,9,0,15,0.00
2013-3-8,55.1,40.9,27.6,27.9,24.2,20.4,84,55,27,30.19,30.05,14,0,16,0.00
2013-3-9,62.4,46.1,30.6,30.9,25.9,22.2,79,48,24,30.24,30.15,3,0,6,0.00
2013-3-10,67.1,51.4,36.3,29.2,24.2,16.5,66,38,15,30.23,30.13,4,0,11,0.00
2013-3-11,69.6,55.0,40.2,50.9,42.8,23.1,96,65,43,30.16,29.85,7,0,14,0.00
2013-3-12,69.1,60.0,47.7,62.0,52.4,33.1,99,78,50,29.85,29.66,10,0,11,1.04
2013-3-13,56.7,45.1,32.8,34.1,26.2,15.8,89,51,27,30.02,29.84,10,0,14,0.00
2013-3-14,53.1,39.1,27.3,21.6,17.2,12.5,66,43,21,30.13,30.01,13,0,15,0.00
2013-3-15,62.1,45.6,27.5,33.1,25.0,16.8,73,46,28,30.09,29.80,14,0,16,0.00
2013-3-16,76.8,62.0,49.6,50.5,42.4,33.0,66,50,31,29.80,29.55,7,0,20,0.00
2013-3-17,61.6,49.1,38.5,52.1,43.2,36.0,97,80,66,30.10,29.73,4,0,7,0.00
2013-3-18,41.5,39.0,36.3,41.2,38.5,35.5,99,98,95,30.11,29.76,4,0,6,0.16
2013-3-19,67.1,50.2,38.9,46.2,33.0,11.2,100,63,16,29.93,29.72,10,0,19,0.02
2013-3-20,56.0,45.3,34.3,24.9,14.2,5.3,63,29,19,30.01,29.70,1,0,11,0.00
2013-3-21,44.3,38.0,29.4,31.0,17.7,6.5,76,45,26,29.88,29.62,11,0,16,0.00
2013-3-22,51.4,36.0,22.2,23.6,13.6,7.7,68,42,19,29.99,29.87,5,0,10,0.00
2013-3-23,54.8,43.4,34.3,32.4,23.9,16.1,69,48,27,29.97,29.83,0,0,2,0.00
2013-3-24,41.3,37.8,35.0,37.3,33.3,27.4,97,85,62,29.84,29.48,8,0,10,0.65
2013-3-25,48.2,39.0,33.5,37.1,29.6,20.8,98,73,36,29.71,29.45,12,0,17,0.01
2013-3-26,48.5,41.0,31.2,29.0,25.7,22.3,77,55,41,30.00,29.71,6,0,10,0.00
2013-3-27,51.7,40.5,29.8,26.5,23.0,17.3,81,53,27,30.12,30.00,10,0,19,0.00
2013-3-28,56.3,42.3,28.7,26.7,23.1,19.9,80,50,24,30.19,30.05,9,0,16,0.00
2013-3-29,60.7,45.1,29.7,30.1,25.0,21.6,83,49,24,30.24,30.08,5,0,13,0.00
2013-3-30,66.4,54.8,36.9,42.0,31.5,23.4,74,44,24,30.15,30.00,6,0,6,0.00
2013-3-31,67.9,55.8,46.8,56.3,49.4,41.7,99,80,57,30.01,29.72,8,0,12,0.52